Home > Weather > Bamyan > Past weeks

Flag for Afghanistan Weather for the Past 2 Weeks in Bamyan, Afghanistan

Now
34 °F

Overcast.


Feels Like: 34 °F
Forecast: 0 / 30 °F
Wind: 2 mph from North

Location: Termez Airport

Current Time: Feb 14, 2016 at 4:09:52 AM

Latest Report: Feb 14, 2016 at 3:00 AM


Visibility: N/A

Pressure: 30.36 "Hg (22.25 "Hg at 2492m altitude)

Humidity: 75%

Dew point: 27 °F

Location of BamyanLocation

Historic Weather in Bamyan — Graph

°F

Bamyan Temperature Yesterday

Maximum temperature yesterday: 39 °F (at 1:00 PM)
Minimum temperature yesterday: 28 °F (at 12:30 AM)
Average temperature yesterday: 36 °F

High & Low Weather Summary for the Past Weeks

 TemperatureHumidityPressure
High70 °F (Feb 8, 2:00 PM)100% (Jan 30, 1:30 AM)30.57 "Hg (Jan 30, 1:30 AM)
Low19 °F (Feb 12, 7:00 AM)20% (Feb 8, 3:30 PM)29.92 "Hg (Feb 8, 4:00 PM)
Average40 °F73%30.29 "Hg
* Reported Jan 30 1:30 AM — Feb 14 2:00 AM, Bamyan, Weather by CustomWeather, © 2016

Note: Actual official high and low records may vary slightly from our data, if they occured in-between our weather recording intervals... More about our weather records

Advertising

Bamyan Weather History for the Previous 24 Hours

 ConditionsComfort  
Time TempWeatherWind HumidityBarometerVisibility
2:00 AM
Sun, Feb 14
34 °FOvercast.1 mph81%30.36 "HgN/A
1:00 AM36 °FOvercast.3 mph75%30.36 "HgN/A
12:30 AM36 °FOvercast.3 mph70%30.39 "HgN/A
12:00 AM36 °FOvercast.2 mph70%30.39 "HgN/A
11:30 PM
Sat, Feb 13
36 °FOvercast.No wind70%30.39 "HgN/A
11:00 PM36 °FOvercast.No wind65%30.39 "HgN/A
10:30 PM36 °FOvercast.5 mph65%30.39 "HgN/A
10:00 PM36 °FOvercast.3 mph65%30.39 "HgN/A
9:30 PM37 °FOvercast.3 mph60%30.39 "HgN/A
9:00 PM36 °FOvercast.5 mph65%30.39 "HgN/A
8:30 PM36 °FOvercast.5 mph65%30.39 "HgN/A
8:00 PM36 °FOvercast.5 mph65%30.39 "HgN/A
7:30 PM37 °FOvercast.5 mph60%30.36 "HgN/A
7:00 PM37 °FOvercast.6 mph60%30.36 "HgN/A
6:30 PM37 °FOvercast.6 mph60%30.36 "HgN/A
6:00 PM37 °FOvercast.1 mph60%30.36 "HgN/A
5:30 PM37 °FOvercast.1 mph56%30.33 "HgN/A
5:00 PM39 °FOvercast.5 mph56%30.33 "HgN/A
4:30 PM39 °FPartly sunny.2 mph52%30.33 "HgN/A
4:00 PM39 °FPartly sunny.5 mph56%30.33 "HgN/A
3:30 PM39 °FPartly sunny.2 mph56%30.33 "HgN/A
3:00 PM39 °FPartly sunny.1 mph56%30.33 "HgN/A
2:30 PM39 °FPartly sunny.No wind52%30.33 "HgN/A
2:00 PM39 °FPartly sunny.1 mph56%30.33 "HgN/A
1:30 PM37 °FPartly sunny.2 mph60%30.33 "HgN/A
1:00 PM39 °FPartly sunny.2 mph56%30.33 "HgN/A
12:30 PM37 °FPartly sunny.2 mph60%30.33 "HgN/A
12:00 PM37 °FPartly sunny.3 mph60%30.33 "HgN/A
11:30 AM37 °FPartly sunny.5 mph60%30.36 "HgN/A
11:00 AM37 °FPartly sunny.6 mph60%30.36 "HgN/A
10:30 AM37 °FPartly sunny.6 mph65%30.36 "HgN/A
10:00 AM37 °FPartly sunny.6 mph60%30.36 "HgN/A
9:30 AM36 °FPartly sunny.5 mph70%30.36 "Hg4 mi
9:00 AM36 °FPartly sunny.3 mph75%30.36 "Hg6 mi
8:30 AM34 °FPartly sunny.3 mph81%30.36 "Hg4 mi
8:00 AM34 °FPartly sunny.2 mph87%30.36 "Hg4 mi
7:30 AM32 °FPartly sunny.3 mph93%30.33 "Hg4 mi
6:30 AM32 °FPassing clouds.3 mph93%30.33 "Hg5 mi
5:30 AM32 °FPassing clouds.2 mph87%30.33 "Hg5 mi
4:30 AM32 °FPassing clouds.5 mph87%30.33 "HgN/A
4:00 AM32 °FPassing clouds.3 mph87%30.33 "HgN/A
Weather by CustomWeather, © 2016

See weather overviewHow to use our weather pages